Chapel Hill, NC

10:23 AM EDT on October 22, 2017 (GMT -0400)
Williams

Weather History for KIGX - February, 2013

Change the Weather History Date:

Thursday, February 21, 2013

  Actual Average Record
Temperature  
Mean Temperature 40 °F -  
Max Temperature 54 °F 56 °F 73 °F (2011)
Min Temperature 26 °F 31 °F 12 °F (1959)
Degree Days  
Heating Degree Days 25    
Moisture  
Dew Point 16 °F    
Average Humidity 40    
Maximum Humidity 69    
Minimum Humidity 21    
Precipitation  
Precipitation 0.00 in - - ()
Sea Level Pressure  
Sea Level Pressure 30.18 in    
Wind  
Wind Speed 3 mph (North)    
Max Wind Speed 8 mph    
Max Gust Speed -    
Visibility 10 miles    
Events      
Averages and records for this station are not official NWS values.
T = Trace of Precipitation, MM = Missing Value Source: NWS Daily Summary

Daily Weather History Graph

Daily Weather History Graph

Search for Another Location

Airport or City:

Trip Planner

Search our weather history database for the weather conditions in past years. The results will help you decide how hot, cold, wet, or windy it might be!

Date:

Astronomy

Feb. 21, 2013 Rise Set
Actual Time 6:56 AM EST 6:03 PM EST
Civil Twilight 6:30 AM EST 6:29 PM EST
Nautical Twilight 6:00 AM EST 6:59 PM EST
Astronomical Twilight 5:30 AM EST 7:29 PM EST
Moon 2:22 PM EST (2/21) 3:54 AM EST (2/21)
Length of Visible Light 11h 59m
Length of Day
11h 07m
Waxing Gibbous, 83% of the Moon is Illuminated
Feb 21
Waxing Gibbous
Feb 25
Full
Mar 4
Last Quarter
Mar 11
New
Mar 19
First Quarter

Hourly Weather History & Observations

Time (EST) Temp. Windchill Dew Point Humidity Pressure Visibility Wind Dir Wind Speed Gust Speed Precip Events Conditions
12:56 AM 36.0 °F 33.3 °F 12.9 °F 39% 30.13 in 10.0 mi Variable 3.5 mph - N/A   Clear
1:56 AM 34.0 °F - 14.0 °F 44% 30.13 in 10.0 mi Calm Calm - N/A   Clear
2:56 AM 30.9 °F - 14.0 °F 50% 30.15 in 10.0 mi Calm Calm - N/A   Clear
3:56 AM 30.9 °F - 12.9 °F 47% 30.15 in 10.0 mi Calm Calm - N/A   Clear
4:56 AM 26.1 °F - 17.1 °F 69% 30.16 in 10.0 mi Calm Calm - N/A   Clear
5:56 AM 27.0 °F - 16.0 °F 63% 30.17 in 10.0 mi Calm Calm - N/A   Clear
6:56 AM 27.0 °F - 17.1 °F 66% 30.21 in 10.0 mi Calm Calm - N/A   Clear
7:56 AM 30.9 °F - 19.0 °F 61% 30.22 in 10.0 mi Calm Calm - N/A   Clear
8:56 AM 36.0 °F 32.1 °F 14.0 °F 41% 30.23 in 10.0 mi West 4.6 mph - N/A   Clear
9:56 AM 41.0 °F 35.8 °F 14.0 °F 33% 30.22 in 10.0 mi West 8.1 mph - N/A   Clear
10:56 AM 44.1 °F 39.5 °F 15.1 °F 31% 30.21 in 10.0 mi WNW 8.1 mph - N/A   Clear
11:56 AM 48.0 °F - 16.0 °F 28% 30.20 in 10.0 mi Variable 6.9 mph - N/A   Clear
12:56 PM 50.0 °F - 12.9 °F 23% 30.17 in 10.0 mi Variable 3.5 mph - N/A   Clear
1:56 PM 52.0 °F - 14.0 °F 22% 30.14 in 10.0 mi Variable 5.8 mph - N/A   Clear
2:56 PM 54.0 °F - 14.0 °F 21% 30.12 in 10.0 mi North 4.6 mph - N/A   Clear
3:56 PM 54.0 °F - 14.0 °F 21% 30.12 in 10.0 mi WNW 6.9 mph - N/A   Clear
4:56 PM 53.1 °F - 14.0 °F 21% 30.14 in 10.0 mi WNW 5.8 mph - N/A   Clear
5:56 PM 46.0 °F 44.8 °F 21.0 °F 37% 30.18 in 10.0 mi NW 3.5 mph - N/A   Clear
6:56 PM 46.9 °F - 16.0 °F 29% 30.17 in 10.0 mi NNE 3.5 mph - N/A   Clear
7:56 PM 43.0 °F 41.3 °F 21.0 °F 42% 30.21 in 10.0 mi NE 3.5 mph - N/A   Clear
8:56 PM 44.1 °F 40.1 °F 19.9 °F 38% 30.21 in 10.0 mi ENE 6.9 mph - N/A   Clear
9:56 PM 44.1 °F 42.5 °F 19.0 °F 37% 30.22 in 10.0 mi ENE 3.5 mph - N/A   Clear
10:56 PM 41.0 °F 39.0 °F 24.1 °F 51% 30.26 in 10.0 mi NE 3.5 mph - N/A   Clear
11:56 PM 43.0 °F 38.8 °F 19.0 °F 38% 30.25 in 10.0 mi NE 6.9 mph - N/A   Scattered Clouds